Torna al catalogo

STARLINK-11737

AttivoComunicazioniVLEO
NORAD 64066·PAYLOAD·🇺🇸 United States

Lanciato May 21, 2025 da Cape Canaveral Space Force Station

Loading…

Prossimi Passaggi (prossime 24 ore)

TLE

AggiornatoSource: CelesTrak SupGP

Epoca: Sep 15, 2026, 02:59 UTC

1 64066C 25107C   26258.12479167 -.00013564  00000+0 -10544-3 0  2582
2 64066  43.0013  36.3923 0001761 270.7010 359.6621 15.70823117    11

Traccia STARLINK-11737 in tempo reale con AllMySat

Download on the App Store